#timestamp,LO_Frequency,Hit,StdDev 
1553050815.8,286047005.3,P
1553050835.7,286047004.6,N
1553050855.5,286047009.1,Y
1553050875.4,286047001.9,P
1553050895.2,286047002.7,P
1553050915.0,286047000.5,N
1553050915.9,286047000.5,N
1553050935.8,286046997.1,N
1553050955.6,286046995.5,N
1553050975.4,286046993.9,N
1553050995.3,286046992.1,N
1553051015.1,286046992.6,N
1553051035.9,286046993.1,N
1553051055.7,286046991.7,N
1553051075.5,286046994.3,N
1553051095.4,286046994.6,N
1553051115.2,286046993.4,N
1553051135.0,286046997.6,N
1553051135.9,286046997.6,N
1553051155.8,286046998.5,N
1553051175.6,286047002.3,N
1553051195.5,286047001.6,N
1553051215.3,286047001.3,N
1553051235.1,286047001.5,N
1553051255.9,286047000.5,N
1553051275.7,286046998.8,N
1553051295.5,286046999.0,N
1553051315.4,286046997.3,N
1553051335.2,286046997.9,N
1553051355.1,286046996.9,N
1553051356.0,286046996.9,N
1553051375.8,286046995.9,N
1553051395.6,286046995.3,N
1553051415.5,286046996.7,N
1553051435.3,286046999.4,N
1553051455.1,286046999.4,N
1553051475.9,286046999.2,N
1553051495.7,286047000.4,N
1553051515.6,286047001.4,N
1553051535.4,286047005.0,N
1553051555.2,286047005.2,N
1553051575.1,286047005.9,N
1553051576.0,286047005.9,N
1553051595.8,286047005.7,N
1553051615.6,286047007.6,N
1553051635.5,286047004.7,N
1553051655.3,286047009.0,N
1553051675.2,286047006.6,N
1553051695.9,286047004.5,N
1553051715.7,286047003.4,N
1553051735.6,286047003.8,N
1553051755.4,286047002.2,N
1553051775.2,286047001.6,N
1553051795.1,286047002.4,N
1553051796.0,286047002.4,N
1553051815.8,286047001.4,N
1553051835.7,286047003.7,N
1553051855.5,286047001.8,N
1553051875.3,286047002.3,N
1553051895.2,286046998.2,N
1553051915.0,286046999.6,N
1553051915.9,286046999.6,N
1553051935.7,286046998.3,N
1553051955.6,286047000.4,N
1553051975.4,286047000.7,N
1553051995.3,286046996.5,N
1553052015.1,286046996.7,N
1553052016.0,286046996.7,N
1553052035.8,286046999.0,N
1553052055.7,286046998.3,N
1553052075.5,286046998.3,N
1553052095.3,286046996.9,N
1553052115.2,286046997.7,N
1553052135.0,286046995.3,N
1553052135.9,286046995.3,N
1553052155.8,286046995.0,N
1553052175.6,286046994.0,N
1553052195.4,286046992.8,N
1553052215.3,286046993.0,N
1553052235.1,286046991.5,N
1553052255.9,286046987.3,Y
1553052275.7,286046991.5,P
1553052295.5,286046990.3,N
1553052315.4,286046990.2,N
1553052335.2,286046991.0,N
1553052355.0,286046993.1,N
1553052355.9,286046993.1,N
1553052375.8,286046990.5,Y
1553052395.6,286046998.7,P
1553052415.5,286046998.4,N
1553052435.3,286047000.4,N
1553052455.1,286047001.9,N
1553052475.9,286047001.7,N
1553052495.7,286047004.2,N
1553052515.5,286047003.6,N
1553052535.4,286047005.5,N
1553052555.2,286047005.9,N
1553052575.1,286047003.0,N
1553052576.0,286047003.0,N
1553052595.8,286047005.2,N
1553052615.6,286047005.6,N
1553052635.5,286047007.3,N
1553052655.3,286047007.2,N
1553052675.2,286047006.5,N
1553052695.9,286047010.1,N
1553052715.7,286047011.8,N
1553052735.6,286047011.5,N
1553052755.4,286047010.9,N
1553052775.2,286047017.0,Y
1553052795.1,286047013.6,P
1553052796.0,286047013.6,N
1553052815.8,286047013.2,P
1553052835.7,286047013.6,Y
1553052855.5,286046999.0,P
1553052875.3,286046996.6,N
1553052895.2,286046997.0,N
1553052915.0,286046997.3,N
1553052915.9,286046997.3,N
1553052935.7,286046998.7,N
1553052955.6,286046999.0,N
1553052975.4,286046999.0,N
1553052995.3,286046996.5,N
1553053015.1,286046997.0,N
1553053016.0,286046997.0,N
1553053035.8,286046997.0,N
1553053055.7,286046999.2,N
1553053075.5,286046999.6,N
1553053095.3,286046996.8,N
1553053115.2,286046997.0,N
1553053135.0,286046996.8,N
1553053135.9,286046996.8,N
1553053155.8,286046997.3,N
1553053175.6,286046997.7,N
1553053195.4,286046997.4,N
1553053215.3,286046997.0,N
1553053235.1,286046997.4,N
1553053255.8,286046999.6,N
1553053275.7,286046999.5,N
1553053295.5,286046998.7,N
1553053315.4,286046998.8,N
1553053335.2,286046998.5,N
1553053355.0,286047001.4,N
1553053355.9,286047001.4,N
1553053375.8,286047001.5,N
1553053395.6,286047004.2,N
1553053415.5,286047002.3,N
1553053435.3,286046998.6,N
1553053455.1,286046999.2,N
1553053475.9,286046999.1,N
1553053495.7,286046997.1,N
1553053515.5,286046996.5,N
1553053535.4,286046997.4,N
1553053555.2,286046996.8,N
1553053575.1,286046999.1,N
1553053576.0,286046999.1,N
1553053595.8,286046999.2,N
1553053615.6,286046996.5,N
1553053635.5,286046999.1,N
1553053655.3,286046997.4,N
1553053675.1,286046995.5,N
1553053695.9,286046994.9,N
1553053715.7,286046993.4,Y
1553053735.6,286046994.2,P
1553053755.4,286046993.5,N
1553053775.2,286046992.4,P
1553053795.1,286046990.5,Y
1553053796.0,286046990.5,P
1553053815.8,286046995.9,N
1553053835.7,286046993.5,N
1553053855.5,286046994.1,N
1553053875.3,286046993.8,Y
1553053895.2,286047000.3,P
1553053915.0,286046999.3,N
1553053915.9,286046999.3,N
1553053935.7,286046997.1,N
1553053955.6,286046997.3,N
1553053975.4,286046999.1,N
1553053995.3,286046999.2,N
1553054015.1,286046998.8,N
1553054016.0,286046998.8,N
1553054035.8,286047002.0,N
1553054055.7,286047003.7,N
1553054075.5,286047003.6,N
1553054095.3,286047006.0,N
1553054115.2,286047006.0,N
1553054135.0,286047006.3,N
1553054135.9,286047006.3,N
1553054155.8,286047012.1,Y
1553054175.6,286047009.6,P
1553054195.4,286047010.9,N
1553054215.3,286047012.3,N
1553054235.1,286047011.3,N
1553054255.8,286047011.6,N
1553054275.7,286047009.7,N
1553054295.5,286047006.5,N
1553054315.4,286047007.3,N
1553054335.2,286047002.9,N
1553054355.0,286047002.0,N
1553054355.9,286047002.0,N
1553054375.8,286047000.4,N
1553054395.6,286047001.2,N
